Blair, NE

6:47 PM CDT on April 23, 2017 (GMT -0500)
Blair Municipal

Weather History for KBTA - November, 2013

Change the Weather History Date:

Wednesday, November 6, 2013

  Actual Average (KOMA) Record (KOMA)
Temperature  
Mean Temperature 36 °F -  
Max Temperature 40 °F 52 °F 80 °F (1980)
Min Temperature 31 °F 31 °F 7 °F (1991)
Degree Days  
Heating Degree Days 30    
Moisture  
Dew Point 31 °F    
Average Humidity 86    
Maximum Humidity 94    
Minimum Humidity 70    
Precipitation  
Precipitation 0.05 in - - ()
Sea Level Pressure  
Sea Level Pressure 30.18 in    
Wind  
Wind Speed 12 mph (West)    
Max Wind Speed 22 mph    
Max Gust Speed 29 mph    
Visibility 10 miles    
Events Snow    
Averages and records for this station are not official NWS values.
T = Trace of Precipitation, MM = Missing Value Source: NWS Daily Summary

Daily Weather History Graph

Daily Weather History Graph

Search for Another Location

Airport or City:

Trip Planner

Search our weather history database for the weather conditions in past years. The results will help you decide how hot, cold, wet, or windy it might be!

Date:

Astronomy

Nov. 06, 2013 Rise Set
Actual Time 7:02 AM CST 5:13 PM CST
Civil Twilight 6:33 AM CST 5:42 PM CST
Nautical Twilight 6:00 AM CST 6:15 PM CST
Astronomical Twilight 5:27 AM CST 6:47 PM CST
Moon 10:19 AM CST (11/6) 8:17 PM CST (11/6)
Length of Visible Light 11h 09m
Length of Day
10h 10m
Waxing Crescent, 14% of the Moon is Illuminated
Nov 6
Waxing Crescent
Nov 9
First Quarter
Nov 17
Full
Nov 25
Last Quarter
Dec 2
New

Hourly Weather History & Observations

Time (CST) Temp. Windchill Dew Point Humidity Pressure Visibility Wind Dir Wind Speed Gust Speed Precip Events Conditions
12:15 AM 33.8 °F 21.9 °F 32.0 °F 93% 30.03 in 5.0 mi NNW 21.9 mph 28.8 mph N/A   Overcast
12:35 AM 33.8 °F 22.5 °F 32.0 °F 93% 30.04 in 10.0 mi NNW 19.6 mph 25.3 mph N/A   Light Drizzle
12:55 AM 33.4 °F 23.5 °F 32.0 °F 94% 30.06 in 7.0 mi NNW 15.0 mph 21.9 mph N/A   Light Drizzle
1:15 AM 33.1 °F 21.5 °F 31.6 °F 94% 30.05 in 2.0 mi NNW 19.6 mph 23.0 mph N/A Snow Light Snow
1:35 AM 33.1 °F 22.2 °F 31.6 °F 94% 30.05 in 2.5 mi NNW 17.3 mph 26.5 mph N/A Snow Light Snow
1:55 AM 33.1 °F 21.5 °F 31.5 °F 94% 30.05 in 10.0 mi NNW 19.6 mph 26.5 mph N/A Snow Light Snow
2:15 AM 33.3 °F 22.5 °F 31.3 °F 92% 30.06 in 10.0 mi NNW 17.3 mph 24.2 mph N/A   Overcast
2:35 AM 33.4 °F 22.3 °F 31.5 °F 92% 30.06 in 10.0 mi NNW 18.4 mph 23.0 mph N/A   Overcast
2:55 AM 33.3 °F 23.2 °F 31.1 °F 92% 30.07 in 10.0 mi NNW 15.0 mph 24.2 mph N/A   Overcast
3:15 AM 33.3 °F 24.1 °F 31.1 °F 92% 30.08 in 10.0 mi NNW 12.7 mph 19.6 mph N/A   Overcast
3:35 AM 33.1 °F 22.2 °F 30.7 °F 91% 30.07 in 10.0 mi NNW 17.3 mph 23.0 mph N/A   Overcast
3:55 AM 32.9 °F 22.0 °F 30.4 °F 90% 30.07 in 10.0 mi NNW 17.3 mph 21.9 mph N/A   Overcast
4:15 AM 32.9 °F 22.8 °F 30.2 °F 90% 30.08 in 10.0 mi North 15.0 mph 23.0 mph N/A   Overcast
4:35 AM 32.9 °F 24.1 °F 30.6 °F 91% 30.10 in 10.0 mi NNW 11.5 mph - N/A   Overcast
4:55 AM 32.9 °F 23.2 °F 30.7 °F 92% 30.10 in 10.0 mi NNW 13.8 mph 19.6 mph N/A   Overcast
5:15 AM 32.9 °F 23.7 °F 30.4 °F 90% 30.10 in 10.0 mi NNW 12.7 mph - N/A   Overcast
5:35 AM 32.9 °F 24.7 °F 30.2 °F 90% 30.12 in 10.0 mi NNW 10.4 mph 18.4 mph N/A   Overcast
5:55 AM 32.5 °F 24.2 °F 30.2 °F 91% 30.12 in 10.0 mi NW 10.4 mph - N/A   Overcast
6:15 AM 32.7 °F 25.7 °F 30.6 °F 92% 30.13 in 10.0 mi NW 8.1 mph - N/A   Overcast
6:35 AM 32.5 °F 24.2 °F 30.6 °F 92% 30.13 in 10.0 mi NW 10.4 mph - N/A   Overcast
6:55 AM 32.5 °F 24.2 °F 30.2 °F 91% 30.14 in 10.0 mi NW 10.4 mph - N/A   Overcast
7:15 AM 32.7 °F 24.5 °F 30.6 °F 92% 30.15 in 10.0 mi NW 10.4 mph - N/A   Overcast
7:35 AM 32.9 °F 24.1 °F 30.6 °F 91% 30.16 in 10.0 mi NW 11.5 mph - N/A   Overcast
7:55 AM 33.1 °F 25.5 °F 30.7 °F 91% 30.17 in 10.0 mi NW 9.2 mph - N/A   Overcast
8:15 AM 33.3 °F 26.4 °F 30.7 °F 90% 30.19 in 10.0 mi NW 8.1 mph - N/A   Overcast
8:35 AM 33.4 °F 25.9 °F 30.4 °F 89% 30.20 in 10.0 mi NW 9.2 mph - N/A   Overcast
8:55 AM 33.8 °F 26.4 °F 30.7 °F 89% 30.20 in 10.0 mi NW 9.2 mph - N/A   Overcast
9:15 AM 34.3 °F 29.2 °F 31.1 °F 88% 30.21 in 10.0 mi WNW 5.8 mph - N/A   Overcast
9:35 AM 34.3 °F 27.7 °F 31.1 °F 88% 30.22 in 10.0 mi WNW 8.1 mph - N/A   Overcast
9:55 AM 34.7 °F 29.6 °F 31.6 °F 89% 30.22 in 10.0 mi WNW 5.8 mph - N/A   Overcast
10:15 AM 34.9 °F 29.0 °F 31.6 °F 88% 30.22 in 10.0 mi WNW 6.9 mph - N/A   Overcast
10:35 AM 35.4 °F 30.5 °F 31.6 °F 86% 30.23 in 10.0 mi WNW 5.8 mph - N/A   Overcast
10:55 AM 36.0 °F 31.1 °F 31.8 °F 85% 30.23 in 10.0 mi West 5.8 mph - N/A   Overcast
11:15 AM 36.9 °F 31.4 °F 32.0 °F 83% 30.23 in 10.0 mi West 6.9 mph - N/A   Overcast
11:35 AM 37.0 °F 31.0 °F 31.8 °F 81% 30.23 in 10.0 mi West 8.1 mph - N/A   Overcast
11:55 AM 37.8 °F 31.8 °F 31.8 °F 79% 30.23 in 10.0 mi West 8.1 mph - N/A   Overcast
12:15 PM 38.5 °F 33.4 °F 31.8 °F 77% 30.22 in 10.0 mi West 6.9 mph - N/A   Overcast
12:35 PM 39.2 °F 34.2 °F 31.6 °F 74% 30.21 in 10.0 mi WNW 6.9 mph - N/A   Overcast
12:55 PM 39.4 °F 33.8 °F 31.8 °F 74% 30.21 in 10.0 mi West 8.1 mph - N/A   Overcast
1:15 PM 38.7 °F 32.9 °F 31.8 °F 76% 30.21 in 10.0 mi West 8.1 mph - N/A   Overcast
1:35 PM 38.3 °F 33.2 °F 32.0 °F 78% 30.22 in 10.0 mi West 6.9 mph - N/A   Overcast
1:55 PM 38.8 °F 33.2 °F 32.0 °F 76% 30.22 in 10.0 mi WNW 8.1 mph - N/A   Overcast
2:15 PM 40.3 °F 34.4 °F 32.2 °F 73% 30.22 in 10.0 mi WSW 9.2 mph - N/A   Mostly Cloudy
2:35 PM 40.3 °F 36.3 °F 32.4 °F 73% 30.22 in 10.0 mi West 5.8 mph - N/A   Mostly Cloudy
2:55 PM 40.1 °F 36.1 °F 32.2 °F 73% 30.22 in 10.0 mi West 5.8 mph - N/A   Overcast
3:15 PM 40.5 °F 35.8 °F 31.6 °F 71% 30.22 in 10.0 mi WSW 6.9 mph - N/A   Overcast
3:35 PM 40.6 °F 36.7 °F 31.5 °F 70% 30.22 in 10.0 mi SW 5.8 mph - N/A   Overcast
3:55 PM 40.3 °F 37.1 °F 31.8 °F 72% 30.21 in 10.0 mi SSW 4.6 mph - N/A   Overcast
4:15 PM 40.5 °F 37.3 °F 31.8 °F 71% 30.21 in 10.0 mi SSW 4.6 mph - N/A   Overcast
4:35 PM 40.3 °F 36.3 °F 32.0 °F 72% 30.21 in 10.0 mi SSW 5.8 mph - N/A   Overcast
4:55 PM 39.7 °F - 32.0 °F 74% 30.21 in 10.0 mi Calm Calm - N/A   Overcast
5:15 PM 39.4 °F 37.2 °F 32.9 °F 78% 30.21 in 10.0 mi SSW 3.5 mph - N/A   Overcast
5:35 PM 38.3 °F - 32.9 °F 81% 30.22 in 10.0 mi Calm Calm - N/A   Overcast
5:55 PM 37.9 °F - 32.9 °F 82% 30.23 in 10.0 mi Calm Calm - N/A   Overcast
6:15 PM 38.7 °F - 32.4 °F 78% 30.23 in 10.0 mi Calm Calm - N/A   Overcast
6:35 PM 37.6 °F 35.1 °F 32.9 °F 83% 30.23 in 10.0 mi South 3.5 mph - N/A   Overcast
6:55 PM 37.8 °F 35.3 °F 32.7 °F 82% 30.23 in 10.0 mi SSW 3.5 mph - N/A   Overcast
7:15 PM 36.7 °F 30.5 °F 31.8 °F 83% 30.24 in 10.0 mi WSW 8.1 mph - N/A   Scattered Clouds
7:35 PM 35.6 °F 28.0 °F 31.3 °F 84% 30.24 in 10.0 mi WSW 10.4 mph - N/A   Clear
7:55 PM 34.5 °F 29.4 °F 30.7 °F 86% 30.24 in 10.0 mi WSW 5.8 mph - N/A   Clear
8:15 PM 33.1 °F 26.9 °F 30.2 °F 89% 30.23 in 10.0 mi SW 6.9 mph - N/A   Clear
8:35 PM 33.3 °F - 30.0 °F 88% 30.23 in 10.0 mi Calm Calm - N/A   Clear
8:55 PM 32.0 °F 26.4 °F 29.7 °F 91% 30.23 in 10.0 mi SSW 5.8 mph - N/A   Clear
9:15 PM 32.0 °F 26.4 °F 30.0 °F 92% 30.24 in 10.0 mi SSW 5.8 mph - N/A   Clear
9:35 PM 32.2 °F 25.8 °F 29.8 °F 91% 30.25 in 10.0 mi SSW 6.9 mph - N/A   Clear
9:55 PM 32.0 °F 26.4 °F 29.1 °F 89% 30.25 in 10.0 mi SSW 5.8 mph - N/A   Clear
10:15 PM 31.8 °F 25.4 °F 29.3 °F 90% 30.25 in 10.0 mi SSW 6.9 mph - N/A   Clear
10:35 PM 32.0 °F 24.8 °F 29.1 °F 89% 30.25 in 10.0 mi SSW 8.1 mph - N/A   Clear
10:55 PM 31.8 °F 24.6 °F 28.9 °F 89% 30.25 in 10.0 mi SSW 8.1 mph - N/A   Clear
11:15 PM 31.5 °F 25.8 °F 28.8 °F 90% 30.25 in 10.0 mi SSW 5.8 mph - N/A   Clear
11:35 PM 31.8 °F 26.2 °F 29.1 °F 90% 30.24 in 10.0 mi South 5.8 mph - N/A   Clear
11:55 PM 32.0 °F 25.6 °F 29.3 °F 90% 30.24 in 10.0 mi SSW 6.9 mph - N/A   Clear